[[{"header":{"parameterUnit":"m.s-1","parameterCategory":1,"la1":30.2991,"la2":30.254,"lo1":-89.0895,"lo2":-89.0444,"dy":0.0017,"dx":0.0017,"nx":28,"ny":28,"refTime":"2024-03-08T03:00:00:Z","depth":0,"parameterNumber":2,"parameterNumberName":"U-component_of_WINDS"},"data":[0,0,0,0,0,0,0,0,0,0,0,0,0,0,0,0,0,0,0,0,0,0,0,0,0,0,0,0,0,0,0,0,0,0,0,0,0,0,0,0,0,0,0,0,0,0,0,0,0,0,0,0,0,0,0,0,0,0,-2.7397,-2.7397,0,-2.7361,-2.7361,-2.736,-2.7328,-2.7328,-2.7327,-2.7327,-2.7287,-2.7286,-2.7286,0,0,0,0,0,0,0,0,0,0,0,0,0,-2.7439,-2.7438,-2.7397,-2.7397,-2.7397,-2.7361,-2.7361,-2.736,-2.7328,-2.7328,-2.7327,-2.7327,-2.7287,-2.7286,-2.7286,0,0,0,0,0,0,0,0,0,0,0,0,0,-2.7414,-2.7438,-2.7398,-2.7376,-2.7374,-2.7361,-2.7361,-2.736,-2.7328,-2.7328,-2.7327,-2.7327,-2.7288,-2.7287,-2.7285,-2.729,0,0,-2.7282,-2.7282,0,0,0,0,0,0,0,0,-2.7415,-2.7412,-2.738,-2.7378,-2.7375,-2.7349,-2.7361,-2.7336,-2.7328,-2.7346,-2.7327,-2.7326,-2.7308,-2.7305,-2.7299,-2.7288,-2.7286,-2.7282,-2.7281,-2.7281,-2.7281,0,0,0,0,0,0,0,-2.7417,-2.7413,-2.7383,-2.738,-2.7377,-2.7369,-2.7364,-2.7356,-2.733,-2.7344,-2.7342,-2.7338,-2.7306,-2.73,-2.7298,-2.7285,-2.7282,-2.7281,-2.728,-2.728,-2.7277,-2.7278,0,0,0,0,0,0,-2.7422,-2.7415,-2.7384,-2.7382,-2.7394,-2.7368,-2.7364,-2.7358,-2.733,-2.7325,-2.7338,-2.7337,-2.7303,-2.7299,-2.7297,-2.73,-2.7281,-2.728,-2.7279,-2.7277,-2.7278,-2.7278,0,0,0,0,0,0,-2.7423,-2.742,-2.7386,-2.7398,-2.7393,-2.7368,-2.7362,-2.7357,-2.7351,-2.7326,-2.7321,-2.7337,-2.7302,-2.7298,-2.7292,-2.7298,-2.7279,-2.7278,-2.7276,-2.7277,-2.7278,-2.7307,0,0,0,0,0,0,-2.7424,-2.742,-2.7421,-2.7398,-2.7392,-2.7382,-2.7362,-2.7357,-2.735,-2.7347,-2.7323,-2.7319,-2.7301,-2.7294,-2.7291,-2.7296,-2.7278,-2.7275,-2.7277,-2.7278,-2.7305,-2.7308,-2.7311,0,0,0,0,0,-2.7426,-2.743,-2.7421,-2.7418,-2.7393,-2.7382,-2.7379,-2.7359,-2.735,-2.7351,-2.7336,-2.7319,-2.7299,-2.7294,-2.729,-2.7295,-2.7275,-2.7276,-2.7278,-2.7304,-2.7308,-2.7311,0,0,0,0,0,0,-2.7452,-2.7426,-2.7417,-2.7413,-2.74,-2.7377,-2.7377,-2.7364,-2.7352,-2.735,-2.7326,-2.7321,-2.7318,-2.7306,-2.7301,-2.7299,-2.7285,-2.7285,-2.7306,-2.731,-2.7313,-2.7314,-2.7277,0,0,0,0,0,-2.7458,-2.7452,-2.7429,-2.7428,-2.7423,-2.7402,-2.7396,-2.7382,-2.7367,-2.7361,-2.7345,-2.7331,-2.7321,-2.7315,-2.7305,-2.7305,-2.7299,-2.7306,-2.731,-2.7312,-2.7312,-2.7312,-2.7315,-2.7283,-2.7283,-2.7282,0,0,-2.7469,-2.7454,-2.7451,-2.7434,-2.7422,-2.7416,-2.7397,-2.739,-2.7385,-2.736,-2.7353,-2.7342,-2.7325,-2.7322,-2.732,-2.7312,-2.7321,-2.7314,-2.7316,-2.7315,-2.7314,-2.7317,-2.732,-2.7283,-2.7283,-2.7283,0,0,-2.7486,-2.7474,-2.7473,-2.7462,-2.7446,-2.7432,-2.7432,-2.7411,-2.7403,-2.7396,-2.7378,-2.7372,-2.7356,-2.7345,-2.7337,-2.7354,-2.7339,-2.7351,-2.7367,-2.7367,-2.7369,-2.7371,-2.7377,-2.7379,-2.7352,-2.7352,-2.7352,0,-2.7501,-2.7491,-2.7473,-2.7469,-2.7462,-2.7441,-2.744,-2.743,-2.7411,-2.7406,-2.7399,-2.738,-2.7366,-2.7361,-2.7366,-2.736,-2.7359,-2.7352,-2.7371,-2.7373,-2.7374,-2.7379,-2.7381,-2.7354,-2.7353,-2.7353,-2.7353,0,-2.7511,-2.7505,-2.7506,-2.7489,-2.7483,-2.7479,-2.7461,-2.7457,-2.7445,-2.7433,-2.7427,-2.7412,-2.7398,-2.7397,-2.7385,-2.739,-2.7386,-2.7375,-2.736,-2.7379,-2.7383,-2.7385,-2.7356,-2.7355,-2.7355,-2.7354,0,0,-2.7539,-2.7516,-2.7516,-2.7509,-2.7491,-2.7486,-2.7483,-2.7472,-2.7468,-2.7457,-2.7453,-2.7442,-2.7432,-2.7424,-2.7411,-2.7411,-2.7426,-2.74,-2.7399,-2.7404,-2.7431,-2.7438,-2.7441,-2.7417,-2.7417,-2.7418,-2.7432,0,-2.7552,-2.7545,-2.7531,-2.7529,-2.7523,-2.7505,-2.7503,-2.7492,-2.7481,-2.7475,-2.7463,-2.7455,-2.7443,-2.7438,-2.7438,-2.7424,-2.743,-2.7423,-2.7413,-2.7413,-2.7415,-2.7443,-2.745,-2.7464,-2.7434,-2.7434,-2.7434,0,-2.7565,-2.7556,-2.7554,-2.7538,-2.7535,-2.7533,-2.7523,-2.7517,-2.7505,-2.7497,-2.7489,-2.7476,-2.7472,-2.7461,-2.7456,-2.7451,-2.7447,-2.744,-2.744,-2.7436,-2.7423,-2.7439,-2.7468,-2.747,-2.7437,-2.7437,-2.7437,0,-2.7585,-2.7573,-2.757,-2.7565,-2.7547,-2.7546,-2.7538,-2.7526,-2.7521,-2.7512,-2.7508,-2.7499,-2.7493,-2.7486,-2.7471,-2.7464,-2.7467,-2.7454,-2.746,-2.746,-2.7459,-2.7459,-2.7487,-2.746,-2.746,-2.746,-2.746,0,-2.76,-2.7599,-2.7579,-2.7577,-2.7576,-2.7561,-2.756,-2.7551,-2.754,-2.7536,-2.7521,-2.7518,-2.7499,-2.7493,-2.7482,-2.7479,-2.7477,-2.747,-2.7467,-2.747,-2.7471,-2.7465,-2.7463,-2.746,-2.746,-2.746,-2.746,0,-2.7621,-2.7608,-2.7604,-2.7588,-2.7584,-2.7584,-2.7571,-2.7568,-2.7558,-2.7554,-2.7552,-2.7535,-2.7529,-2.7514,-2.7503,-2.7495,-2.7495,-2.749,-2.7499,-2.7496,-2.7502,-2.7502,-2.7526,-2.7528,-2.7501,-2.7502,-2.7502,0,-2.763,-2.7629,-2.7614,-2.7611,-2.7604,-2.7599,-2.7595,-2.758,-2.7576,-2.7564,-2.7563,-2.7555,-2.7548,-2.7538,-2.7525,-2.7517,-2.7511,-2.752,-2.7509,-2.7513,-2.751,-2.7509,-2.7509,-2.7522,-2.7522,-2.7522,-2.7522,0,-2.7647,-2.7642,-2.7636,-2.7628,-2.7623,-2.7616,-2.7609,-2.7607,-2.7591,-2.7587,-2.758,-2.7575,-2.7565,-2.7558,-2.7548,-2.754,-2.7528,-2.7527,-2.7527,-2.753,-2.7535,-2.7531,-2.7503,-2.7525,-2.7525,-2.7525,-2.7525,-2.7525,-2.7662,-2.7661,-2.7651,-2.7645,-2.7638,-2.7632,-2.7629,-2.762,-2.7615,-2.7606,-2.7598,-2.7592,-2.7582,-2.7569,-2.7562,-2.7557,-2.7551,-2.7553,-2.7552,-2.7553,-2.7554,-2.7538,-2.7556,-2.7556,-2.7556,-2.7556,-2.7556,0,-2.7678,-2.7671,-2.7666,-2.7657,-2.7653,-2.7644,-2.7636,-2.7633,-2.7628,-2.7621,-2.7615,-2.7608,-2.7602,-2.759,-2.7582,-2.7581,-2.7576,-2.758,-2.7578,-2.7577,-2.756,-2.756,-2.7584,-2.7584,-2.7584,-2.7584,-2.7584,-2.7584,-2.7685,-2.7683,-2.7677,-2.7672,-2.7665,-2.766,-2.7656,-2.765,-2.7644,-2.7638,-2.7633,-2.7625,-2.7616,-2.7608,-2.7602,-2.7599,-2.7596,-2.7602,-2.7597,-2.7581,-2.7578,-2.7575,-2.7575,-2.7602,-2.7602,-2.7613,-2.7613,-2.7614]},{"header":{"parameterUnit":"m.s-1","parameterCategory":1,"la1":30.2991,"la2":30.254,"lo1":-89.0895,"lo2":-89.0444,"dy":0.0017,"dx":0.0017,"nx":28,"ny":28,"refTime":"2024-03-08T03:00:00:Z","depth":0,"parameterNumber":3,"parameterNumberName":"V-component_of_WINDS"},"data":[0,0,0,0,0,0,0,0,0,0,0,0,0,0,0,0,0,0,0,0,0,0,0,0,0,0,0,0,0,0,0,0,0,0,0,0,0,0,0,0,0,0,0,0,0,0,0,0,0,0,0,0,0,0,0,0,0,0,2.4814,2.4814,0,2.4816,2.4816,2.4816,2.4889,2.4891,2.4893,2.4895,2.4892,2.489,2.4888,0,0,0,0,0,0,0,0,0,0,0,0,0,2.4871,2.4869,2.4814,2.4814,2.4814,2.4816,2.4816,2.4816,2.4889,2.4891,2.4894,2.4896,2.4892,2.489,2.4888,0,0,0,0,0,0,0,0,0,0,0,0,0,2.4856,2.4869,2.4814,2.4851,2.4854,2.4816,2.4816,2.4816,2.4888,2.4891,2.4894,2.4897,2.4893,2.489,2.4888,2.4813,0,0,2.4879,2.4878,0,0,0,0,0,0,0,0,2.4857,2.4854,2.4846,2.4849,2.4852,2.4856,2.4835,2.4815,2.4888,2.4875,2.4895,2.4898,2.4877,2.4876,2.487,2.4813,2.4812,2.4879,2.4877,2.4876,2.4875,0,0,0,0,0,0,0,2.4858,2.4855,2.4815,2.4845,2.4849,2.4866,2.4868,2.4831,2.486,2.4877,2.4882,2.4882,2.4879,2.4872,2.487,2.4812,2.4879,2.4876,2.4875,2.4873,2.4696,2.4693,0,0,0,0,0,0,2.4855,2.4855,2.4815,2.4815,2.4862,2.4863,2.4864,2.4851,2.4861,2.4865,2.4879,2.4885,2.4875,2.4873,2.487,2.4785,2.4876,2.4873,2.4872,2.4699,2.4696,2.4692,0,0,0,0,0,0,2.4856,2.485,2.4815,2.4837,2.4833,2.4859,2.4844,2.485,2.4843,2.4862,2.4867,2.4867,2.4878,2.4874,2.4827,2.4786,2.4872,2.4869,2.4703,2.4698,2.4694,2.4612,0,0,0,0,0,0,2.4857,2.485,2.4823,2.4835,2.4832,2.4773,2.4841,2.4848,2.4839,2.4846,2.4852,2.4856,2.488,2.4831,2.4825,2.4783,2.4867,2.4707,2.4701,2.4695,2.4619,2.4605,2.4594,0,0,0,0,0,2.4859,2.4798,2.4821,2.4816,2.4798,2.477,2.4768,2.4798,2.4835,2.4807,2.482,2.4856,2.4791,2.4826,2.4819,2.4776,2.4709,2.4702,2.4696,2.4624,2.4608,2.4594,0,0,0,0,0,0,2.4777,2.48,2.4826,2.4768,2.4767,2.4783,2.4748,2.478,2.4766,2.4774,2.481,2.4811,2.4759,2.4763,2.4801,2.4705,2.4757,2.4748,2.4705,2.4689,2.4677,2.4677,2.4865,0,0,0,0,0,2.4753,2.473,2.475,2.4697,2.4696,2.4722,2.4711,2.4734,2.4734,2.4733,2.4742,2.4739,2.4719,2.4704,2.4686,2.462,2.4623,2.4587,2.4575,2.4565,2.4557,2.4523,2.4508,2.467,2.467,2.467,0,0,2.4702,2.4711,2.4694,2.4681,2.4683,2.4657,2.4721,2.469,2.4671,2.4728,2.4685,2.4692,2.4691,2.4635,2.461,2.4636,2.4513,2.4556,2.4548,2.4545,2.4515,2.45,2.4486,2.4665,2.4666,2.4667,0,0,2.4596,2.46,2.4558,2.4559,2.4562,2.458,2.457,2.4582,2.4589,2.4547,2.459,2.4567,2.453,2.4529,2.4523,2.4418,2.4451,2.4411,2.4347,2.4314,2.4301,2.429,2.4254,2.424,2.4403,2.4403,2.4403,0,2.4531,2.4495,2.4531,2.4499,2.4492,2.4545,2.4502,2.45,2.4496,2.449,2.452,2.4477,2.4479,2.4424,2.4399,2.4392,2.4382,2.4411,2.43,2.429,2.428,2.4245,2.4232,2.4398,2.4399,2.4399,2.44,0,2.4417,2.4391,2.4356,2.4354,2.4343,2.4305,2.4334,2.4319,2.4344,2.4359,2.4316,2.4322,2.4307,2.4295,2.4318,2.4243,2.426,2.4294,2.4347,2.4259,2.4228,2.4215,2.4392,2.4393,2.4395,2.4396,0,0,2.4258,2.4278,2.4265,2.4265,2.4273,2.4254,2.4218,2.4206,2.4192,2.4188,2.4159,2.4128,2.4161,2.4155,2.4178,2.4149,2.4067,2.4187,2.4188,2.4165,2.3987,2.3961,2.3946,2.4089,2.4087,2.4085,2.3987,0,2.4156,2.4099,2.4131,2.4069,2.4046,2.4097,2.4066,2.4067,2.4081,2.4063,2.4077,2.4055,2.4099,2.4096,2.407,2.4083,2.4032,2.409,2.4063,2.4061,2.4062,2.3929,2.3902,2.3809,2.3975,2.3973,2.3971,0,2.403,2.4023,2.396,2.3974,2.3966,2.3938,2.393,2.3912,2.3915,2.3927,2.3921,2.3951,2.3917,2.3969,2.3923,2.3962,2.3953,2.3958,2.3955,2.3953,2.4011,2.3925,2.378,2.3766,2.3952,2.3954,2.3955,0,2.3922,2.3897,2.3856,2.3855,2.387,2.385,2.3855,2.3861,2.3852,2.3844,2.3839,2.3827,2.382,2.3809,2.3836,2.3871,2.3786,2.384,2.3795,2.3794,2.3774,2.3775,2.3627,2.3767,2.3767,2.3768,2.3768,0,2.3806,2.3765,2.3809,2.3783,2.3739,2.3776,2.3731,2.3742,2.3747,2.3724,2.3766,2.3743,2.378,2.3761,2.3781,2.374,2.3736,2.3745,2.3751,2.3741,2.374,2.3736,2.3743,2.3764,2.3765,2.3766,2.3766,0,2.3678,2.3705,2.3665,2.3684,2.3688,2.3654,2.367,2.3647,2.3665,2.3635,2.3631,2.3657,2.3637,2.3662,2.3644,2.3658,2.3602,2.3618,2.3602,2.3607,2.356,2.3565,2.3404,2.3385,2.3537,2.3535,2.3534,0,2.3602,2.3572,2.3589,2.3578,2.3582,2.3563,2.3555,2.359,2.358,2.3582,2.3559,2.3543,2.3532,2.3498,2.3514,2.3501,2.3516,2.3461,2.3514,2.3506,2.3516,2.3518,2.3516,2.345,2.3448,2.3446,2.3445,0,2.3465,2.3481,2.3469,2.3461,2.3451,2.3447,2.3445,2.3433,2.347,2.3456,2.3438,2.3429,2.3412,2.3396,2.3387,2.3392,2.3424,2.3429,2.3418,2.3408,2.3401,2.3405,2.3573,2.3432,2.3433,2.3434,2.3435,2.3436,2.3362,2.3338,2.3347,2.3333,2.3336,2.3334,2.3314,2.333,2.3316,2.3306,2.3327,2.3304,2.3308,2.33,2.3301,2.3283,2.3306,2.329,2.3286,2.3282,2.3275,2.3403,2.3281,2.3281,2.3282,2.3282,2.3282,0,2.3228,2.3237,2.3223,2.3221,2.3209,2.3244,2.3244,2.3232,2.3211,2.3213,2.3203,2.3182,2.3167,2.3183,2.3171,2.3153,2.3168,2.3148,2.315,2.3151,2.3254,2.3265,2.3137,2.3137,2.3137,2.3137,2.3137,2.3137,2.3157,2.312,2.3137,2.3102,2.3111,2.309,2.3087,2.3086,2.3088,2.3064,2.3052,2.3064,2.3072,2.3061,2.3048,2.3054,2.3047,2.3023,2.3033,2.3129,2.3143,2.3157,2.3168,2.3021,2.3021,2.2932,2.2931,2.2931]}]]